This is the latest recevied weather packets stored in our database for station/object KC9DK. If no packets are shown the sender has not sent any weather packets the latest 10 day(s).
| Time | Temp. | Humidity | Pressure | Rain* | Wind** | Luminosity | Snow |
|---|---|---|---|---|---|---|---|
| 1778331040 | 16.11° C | 87% | 1010.2 hPa | 0 mm | - | 161 W/m² | - |
| 1778330737 | 16.11° C | 87% | 1010.2 hPa | 0 mm | - | 148 W/m² | - |
| 1778330434 | 16.11° C | 89% | 1010.2 hPa | 0 mm | - | 127 W/m² | - |
| 1778330132 | 15.56° C | 94% | 1010 hPa | 0 mm | - | 109 W/m² | - |
| 1778329828 | 15° C | 96% | 1010.1 hPa | 0 mm | - | 99 W/m² | - |
| 1778329524 | 15° C | 97% | 1010 hPa | 0 mm | - | 91 W/m² | - |
| 1778329221 | 14.44° C | 97% | 1010 hPa | 0 mm | - | 83 W/m² | - |
| 1778328918 | 15° C | 97% | 1010.1 hPa | 0 mm | - | 78 W/m² | - |
| 1778328616 | 14.44° C | 97% | 1009.9 hPa | 0 mm | - | 76 W/m² | - |
| 1778328314 | 13.33° C | 97% | 1010 hPa | 0 mm | - | 60 W/m² | - |
| 1778328012 | 12.78° C | 97% | 1009.8 hPa | 0 mm | - | 61 W/m² | - |
| 1778327708 | 12.78° C | 97% | 1009.8 hPa | 0 mm | - | 37 W/m² | - |
| 1778327406 | 12.78° C | 97% | 1009.7 hPa | 0 mm | - | 34 W/m² | - |
| 1778327104 | 12.78° C | 97% | 1009.9 hPa | 0 mm | - | 33 W/m² | - |
| 1778326803 | 12.78° C | 97% | 1009.8 hPa | 0 mm | - | 32 W/m² | - |
| 1778326500 | 12.78° C | 97% | 1009.7 hPa | 0 mm | - | 29 W/m² | - |
| 1778326197 | 12.22° C | 97% | 1009.8 hPa | 0 mm | - | 21 W/m² | - |
| 1778325894 | 12.22° C | 97% | 1009.6 hPa | 0 mm | - | 20 W/m² | - |
| 1778325590 | 12.22° C | 96% | 1009.6 hPa | 0 mm | - | 17 W/m² | - |
| 1778325288 | 12.22° C | 96% | 1009.6 hPa | 0 mm | - | 14 W/m² | - |
| 1778324986 | 12.22° C | 96% | 1009.4 hPa | 0 mm | - | 10 W/m² | - |
| 1778324682 | 12.22° C | 96% | 1009.4 hPa | 0 mm | - | 8 W/m² | - |
| 1778324379 | 12.22° C | 96% | 1009.2 hPa | 0 mm | - | 6 W/m² | - |
| 1778324078 | 12.22° C | 96% | 1009.3 hPa | 0 mm | - | 4 W/m² | - |
| 1778323775 | 12.22° C | 96% | 1009.4 hPa | 0 mm | - | 3 W/m² | - |
* Rain latest hour (hover to see other rain measurements)
** Current wind speed in m/s (hover to see current wind gust speed)